Weather History for Cooperstown, ND

Change the Weather History Date:

Friday, April 19, 2013

  Actual Average (KJMS) Record (KJMS)
Temperature  
Mean Temperature 24 °F 44 °F  
Max Temperature 30 °F 57 °F 82 °F (1985)
Min Temperature 15 °F 32 °F 12 °F (1922)
Degree Days  
Heating Degree Days 42 21  
Month to date heating degree days 480  
Since 1 July heating degree days 8400  
Cooling Degree Days 0 0  
Month to date cooling degree days 0  
Year to date cooling degree days 0  
Moisture  
Dew Point 19 °F    
Average Humidity 79    
Maximum Humidity 100    
Minimum Humidity 64    
Precipitation  
Precipitation 0.00 in 0.03 in 0.54 in (1974)
Month to date precipitation 0.63  
Year to date precipitation 2.32  
Sea Level Pressure  
Sea Level Pressure 29.95 in    
Wind  
Wind Speed 18 mph (NNW)    
Max Wind Speed 24 mph    
Max Gust Speed 30 mph    
Visibility 10 miles    
Events      
T = Trace of Precipitation, MM = Missing Value Source: NWS Daily Summary

Daily Weather History Graph

Daily Weather History Graph

Search for Another Location

Airport:

Trip Planner

Search our weather history database for the weather conditions in past years. The results will help you decide how hot, cold, wet, or windy it might be!

Date:

Astronomy

Apr. 19, 2013 Rise Set
Actual Time 6:35 AM CDT 8:27 PM CDT
Civil Twilight 6:03 AM CDT 9:00 PM CDT
Nautical Twilight 5:23 AM CDT 9:40 PM CDT
Astronomical Twilight 4:39 AM CDT 10:25 PM CDT
Moon 1:49 PM CDT (4/19) 3:18 AM CDT (4/19)
Length of Visible Light 14h 57m
Length of Day
13h 51m
First Quarter, 62% of the Moon is Illuminated
Apr 19
First Quarter
Apr 25
Full
May 2
Last Quarter
May 9
New
May 17
First Quarter

Hourly Weather History & Observations

Time (CDT) Temp. Windchill Dew Point Humidity Pressure Visibility Wind Dir Wind Speed Gust Speed Precip Events Conditions
12:15 AM 26.6 °F 13.1 °F 21.2 °F 80% 29.88 in 10.0 mi NNW 19.6 mph 26.5 mph N/A   Clear
12:35 AM 24.8 °F 10.7 °F 19.4 °F 80% 29.88 in 10.0 mi NNW 19.6 mph - N/A   Clear
12:55 AM 24.8 °F 10.7 °F 19.4 °F 80% 29.88 in 10.0 mi NNW 19.6 mph 26.5 mph N/A   Clear
1:15 AM 24.8 °F 10.7 °F 19.4 °F 80% 29.87 in 10.0 mi NNW 19.6 mph - N/A   Clear
1:35 AM 24.8 °F 11.5 °F 19.4 °F 80% 29.87 in 10.0 mi NNW 17.3 mph - N/A   Clear
1:55 AM 24.8 °F 11.1 °F 19.4 °F 80% 29.86 in 10.0 mi NNW 18.4 mph - N/A   Clear
2:15 AM 24.8 °F 11.5 °F 19.4 °F 80% 29.86 in 10.0 mi NNW 17.3 mph - N/A   Clear
2:55 AM 23.0 °F 9.2 °F 19.4 °F 86% 29.85 in 10.0 mi NNW 17.3 mph - N/A   Clear
3:15 AM 23.0 °F 8.7 °F 19.4 °F 86% 29.85 in 10.0 mi NNW 18.4 mph - N/A   Clear
3:35 AM 23.0 °F 9.2 °F 19.4 °F 86% 29.85 in 10.0 mi North 17.3 mph - N/A   Clear
3:55 AM 23.0 °F 9.6 °F 19.4 °F 86% 29.84 in 10.0 mi North 16.1 mph - N/A   Clear
4:15 AM 23.0 °F 10.1 °F 17.6 °F 80% 29.85 in 10.0 mi North 15.0 mph - N/A   Clear
4:35 AM 23.0 °F 10.1 °F 17.6 °F 80% 29.85 in 10.0 mi North 15.0 mph - N/A   Clear
4:55 AM 21.2 °F 7.8 °F 17.6 °F 86% 29.85 in 10.0 mi North 15.0 mph - N/A   Clear
5:15 AM 21.2 °F 7.8 °F 17.6 °F 86% 29.85 in 10.0 mi North 15.0 mph - N/A   Clear
5:35 AM 21.2 °F 7.8 °F 17.6 °F 86% 29.85 in 10.0 mi North 15.0 mph - N/A   Clear
5:55 AM 21.2 °F 7.3 °F 17.6 °F 86% 29.86 in 10.0 mi North 16.1 mph - N/A   Clear
6:15 AM 21.2 °F 7.3 °F 17.6 °F 86% 29.86 in 10.0 mi North 16.1 mph - N/A   Clear
6:35 AM 19.4 °F 5.5 °F 17.6 °F 93% 29.87 in 10.0 mi North 15.0 mph - N/A   Clear
6:55 AM 19.4 °F 5.0 °F 17.6 °F 93% 29.88 in 10.0 mi North 16.1 mph - N/A   Clear
7:15 AM 19.4 °F 5.0 °F 17.6 °F 93% 29.88 in 10.0 mi North 16.1 mph - N/A   Clear
7:35 AM 19.4 °F 5.0 °F 17.6 °F 93% 29.89 in 10.0 mi North 16.1 mph - N/A   Clear
7:55 AM 19.4 °F 5.0 °F 17.6 °F 93% 29.89 in 10.0 mi North 16.1 mph - N/A   Clear
8:15 AM 19.4 °F 5.0 °F 17.6 °F 93% 29.89 in 10.0 mi North 16.1 mph - N/A   Clear
8:55 AM 23.0 °F 8.7 °F 17.6 °F 80% 29.90 in 10.0 mi North 18.4 mph - N/A   Clear
9:15 AM 23.0 °F 8.3 °F 17.6 °F 80% 29.90 in 10.0 mi North 19.6 mph 25.3 mph N/A   Clear
9:35 AM 24.8 °F 10.7 °F 17.6 °F 74% 29.91 in 10.0 mi North 19.6 mph - N/A   Clear
9:55 AM 24.8 °F 10.7 °F 19.4 °F 80% 29.91 in 10.0 mi North 19.6 mph - N/A   Clear
10:15 AM 24.8 °F 10.0 °F 19.4 °F 80% 29.91 in 10.0 mi North 21.9 mph - N/A   Clear
10:35 AM 26.6 °F 12.7 °F 19.4 °F 74% 29.91 in 10.0 mi North 20.7 mph - N/A   Clear
10:55 AM 26.6 °F 12.0 °F 21.2 °F 80% 29.91 in 10.0 mi North 23.0 mph 26.5 mph N/A   Clear
11:15 AM 26.6 °F 12.7 °F 21.2 °F 80% 29.92 in 10.0 mi North 20.7 mph 27.6 mph N/A   Clear
11:35 AM 26.6 °F 12.0 °F 19.4 °F 74% 29.93 in 10.0 mi North 23.0 mph 29.9 mph N/A   Clear
11:55 AM 26.6 °F 11.7 °F 19.4 °F 74% 29.94 in 10.0 mi North 24.2 mph - N/A   Clear
12:15 PM 28.4 °F 15.1 °F 21.2 °F 74% 29.94 in 10.0 mi North 20.7 mph 27.6 mph N/A   Clear
12:35 PM 28.4 °F 14.7 °F 23.0 °F 80% 29.95 in 10.0 mi North 21.9 mph 27.6 mph N/A   Clear
12:55 PM 28.4 °F 15.1 °F 21.2 °F 74% 29.95 in 10.0 mi North 20.7 mph - N/A   Clear
1:15 PM 28.4 °F 15.1 °F 21.2 °F 74% 29.96 in 10.0 mi North 20.7 mph 25.3 mph N/A   Clear
1:35 PM 30.2 °F 17.4 °F 21.2 °F 69% 29.96 in 10.0 mi North 20.7 mph - N/A   Clear
1:55 PM 30.2 °F 17.4 °F 19.4 °F 64% 29.96 in 10.0 mi North 20.7 mph - N/A   Clear
2:15 PM 30.2 °F 17.8 °F 19.4 °F 64% 29.97 in 10.0 mi North 19.6 mph - N/A   Clear
2:35 PM 30.2 °F 18.1 °F 19.4 °F 64% 29.98 in 10.0 mi North 18.4 mph 25.3 mph N/A   Clear
2:55 PM 30.2 °F 17.8 °F 19.4 °F 64% 29.98 in 10.0 mi North 19.6 mph 26.5 mph N/A   Clear
3:15 PM 30.2 °F 17.8 °F 19.4 °F 64% 29.99 in 10.0 mi North 19.6 mph - N/A   Clear
3:35 PM 30.2 °F 18.1 °F 21.2 °F 69% 29.99 in 10.0 mi North 18.4 mph - N/A   Clear
3:55 PM 30.2 °F 17.4 °F 21.2 °F 69% 29.99 in 10.0 mi North 20.7 mph 25.3 mph N/A   Clear
4:15 PM 30.2 °F 16.8 °F 21.2 °F 69% 29.99 in 10.0 mi North 23.0 mph 26.5 mph N/A   Clear
4:35 PM 30.2 °F 17.1 °F 19.4 °F 64% 29.99 in 10.0 mi North 21.9 mph - N/A   Clear
4:55 PM 30.2 °F 17.4 °F 19.4 °F 64% 30.00 in 10.0 mi North 20.7 mph - N/A   Clear
5:15 PM 28.4 °F 15.1 °F 19.4 °F 69% 30.01 in 10.0 mi North 20.7 mph - N/A   Clear
5:35 PM 28.4 °F 15.1 °F 19.4 °F 69% 30.01 in 10.0 mi North 20.7 mph - N/A   Clear
5:55 PM 28.4 °F 15.1 °F 19.4 °F 69% 30.02 in 10.0 mi North 20.7 mph - N/A   Clear
6:15 PM 28.4 °F 15.8 °F 19.4 °F 69% 30.02 in 10.0 mi North 18.4 mph - N/A   Clear
6:35 PM 28.4 °F 16.6 °F 19.4 °F 69% 30.03 in 10.0 mi North 16.1 mph - N/A   Clear
6:55 PM 28.4 °F 15.8 °F 19.4 °F 69% 30.03 in 10.0 mi North 18.4 mph - N/A   Clear
7:15 PM 28.4 °F 15.8 °F 19.4 °F 69% 30.03 in 10.0 mi NNW 18.4 mph - N/A   Clear
7:35 PM 26.6 °F 14.7 °F 19.4 °F 74% 30.04 in 10.0 mi NNW 15.0 mph - N/A   Clear
7:55 PM 26.6 °F 15.2 °F 19.4 °F 74% 30.04 in 10.0 mi North 13.8 mph - N/A   Clear
8:15 PM 24.8 °F 12.9 °F 19.4 °F 80% 30.04 in 10.0 mi NNW 13.8 mph - N/A   Clear
8:35 PM 24.8 °F 13.4 °F 19.4 °F 80% 30.05 in 10.0 mi NNW 12.7 mph - N/A   Clear
8:55 PM 24.8 °F 14.6 °F 19.4 °F 80% 30.05 in 10.0 mi NNW 10.4 mph - N/A   Clear
9:15 PM 23.0 °F 12.4 °F 17.6 °F 80% 30.06 in 10.0 mi NNW 10.4 mph - N/A   Clear
9:35 PM 23.0 °F 13.9 °F 17.6 °F 80% 30.07 in 10.0 mi NW 8.1 mph - N/A   Clear
9:55 PM 23.0 °F 13.9 °F 17.6 °F 80% 30.07 in 10.0 mi NNW 8.1 mph - N/A   Clear
10:15 PM 21.2 °F 11.7 °F 15.8 °F 80% 30.07 in 10.0 mi NNW 8.1 mph - N/A   Clear
10:35 PM 19.4 °F 9.5 °F 17.6 °F 93% 30.07 in 10.0 mi WNW 8.1 mph - N/A   Clear
10:55 PM 19.4 °F 9.5 °F 15.8 °F 86% 30.07 in 10.0 mi NW 8.1 mph - N/A   Clear
11:15 PM 17.6 °F 8.2 °F 15.8 °F 93% 30.07 in 10.0 mi NW 6.9 mph - N/A   Clear
11:35 PM 17.6 °F 7.3 °F 15.8 °F 93% 30.07 in 10.0 mi NW 8.1 mph - N/A   Clear
11:55 PM 15.8 °F 4.2 °F 15.8 °F 100% 30.07 in 10.0 mi NW 9.2 mph - N/A   Clear